Hourly Data Report for November 20, 2020

L'ASSOMPTION
QUEBEC
Current Station Operator: ECCC - MSC

45°48'34.000" N
73°26'05.000" W
21.00 m
7014160
71524
WEW

Download Data

Hourly Data (November 2020)
Hourly Data Report for November 20, 2020
TIME
LST
Temp Definition
°C
Dew Point Definition
°C
Rel Hum Definition
%
Precip. Amount Definition
mm

Wind Dir Definition
10's deg

Wind Spd Definition
km/h
Visibility Definition
km
Stn Press Definition
kPa
Hmdx Definition


Wind Chill Definition


Weather Definition


00:00 -2.9 -5.4 83 0.0 30 3   101.52   -4 LegendNANA
01:00 -2.4 -5.6 78 0.0 32 5   101.53   -4 LegendNANA
02:00 -2.4 -5.5 80 0.0 35 3   101.50   -4 LegendNANA
03:00 -1.7 -4.9 79 0.0 35 3   101.51   -3 LegendNANA
04:00 -0.9 -4.4 77 0.0 2 1   101.50   -1 LegendNANA
05:00 -0.6 -3.9 78 0.0 33 1   101.54   -1 LegendNANA
06:00 -0.6 -3.6 80 0.0 23 2   101.51   -1 LegendNANA
07:00 -0.5 -3.4 81 0.0 22 3   101.54   -1 LegendNANA
08:00 0.3 -3.2 77 0.0 36 4   101.61     LegendNANA
09:00 1.9 -2.0 75 0.0 36 1   101.62     LegendNANA
10:00 2.8 -1.5 73 0.0 5 2   101.63     LegendNANA
11:00 4.4 0.1 74 0.0 35 10   101.51     LegendNANA
12:00 5.2 -0.3 68 0.0 30 5   101.50     LegendNANA
13:00 5.8 0.3 68 0.0 11 3   101.38     LegendNANA
14:00 6.8 1.3 68 0.0 0 1   101.30     LegendNANA
15:00 6.4 1.3 70 0.0 32 5   101.25     LegendNANA
16:00 5.6 1.1 73 0.0 29 2   101.26     LegendNANA
17:00 5.4 1.0 73 0.0 0 1   101.33     LegendNANA
18:00 4.9 1.3 77 0.0   0   101.33     LegendNANA
19:00 2.5 -0.2 82 0.0 18 6   101.30     LegendNANA
20:00 7.4 2.4 71 0.0 22 8   101.33     LegendNANA
21:00 10.2 3.9 65 0.0 23 13   101.36     LegendNANA
22:00 9.3 3.9 69 0.0 23 14   101.42     LegendNANA
23:00 9.6 4.1 69 0.0 24 18   101.47     LegendNANA

Notes on Data Quality.

Legend

  • E = Estimated
  • M = Missing
  • NA = Not Available*
  • [empty] = Indicates an unobserved value
Date modified: